Location: Home
(42.5358°N, 72.7383°W)
Time: 00:28:41
(UTC-04:00)

DELTA 1 DEB - Pass Details

Date: 05 July 2022
Orbit: 600 x 774 km, 98.5° (Epoch: 16 August)

Event Time Altitude Azimuth Distance (km) Brightness Sun altitude
Exits shadow 21:12:02 - 103° (ESE) 2,693 ? -6.9°
Reaches altitude 10° 21:13:51 10° 87° (E) 2,265 ? -7.1°
Maximum altitude 21:16:07 13° 60° (ENE) 2,032 ? -7.5°
Drops below altitude 10° 21:18:21 10° 33° (NNE) 2,228 ? -7.8°
Sets 21:21:46 0° 7° (N) 3,114 ? -8.3°
